﻿測定場所 (Monitoring sites),日付 (Measurement date),時間 (Measurement time),線量率 最大値 (max) μGy/h,線量率 最小値 (min) μGy/h,線量率 平均値 (average) μGy/h,
八王子 (Hachioji),2023-07-02,23:01～24:00,0.0369,0.0323,0.0348,
八王子 (Hachioji),2023-07-02,22:01～23:00,0.0364,0.0311,0.0342,
八王子 (Hachioji),2023-07-02,21:01～22:00,0.0361,0.0325,0.0343,
八王子 (Hachioji),2023-07-02,20:01～21:00,0.0363,0.0318,0.0342,
八王子 (Hachioji),2023-07-02,19:01～20:00,0.0371,0.0324,0.0343,
八王子 (Hachioji),2023-07-02,18:01～19:00,0.0363,0.0314,0.0340,
八王子 (Hachioji),2023-07-02,17:01～18:00,0.0356,0.0318,0.0337,
八王子 (Hachioji),2023-07-02,16:01～17:00,0.0355,0.0316,0.0334,
八王子 (Hachioji),2023-07-02,15:01～16:00,0.0356,0.0314,0.0336,
八王子 (Hachioji),2023-07-02,14:01～15:00,0.0360,0.0313,0.0336,
八王子 (Hachioji),2023-07-02,13:01～14:00,0.0353,0.0309,0.0335,
八王子 (Hachioji),2023-07-02,12:01～13:00,0.0369,0.0312,0.0337,
八王子 (Hachioji),2023-07-02,11:01～12:00,0.0362,0.0313,0.0336,
八王子 (Hachioji),2023-07-02,10:01～11:00,0.0364,0.0318,0.0343,
八王子 (Hachioji),2023-07-02,09:01～10:00,0.0358,0.0320,0.0341,
八王子 (Hachioji),2023-07-02,08:01～09:00,0.0363,0.0312,0.0341,
八王子 (Hachioji),2023-07-02,07:01～08:00,0.0374,0.0318,0.0342,
八王子 (Hachioji),2023-07-02,06:01～07:00,0.0375,0.0315,0.0341,
八王子 (Hachioji),2023-07-02,05:01～06:00,0.0363,0.0322,0.0341,
八王子 (Hachioji),2023-07-02,04:01～05:00,0.0365,0.0315,0.0340,
八王子 (Hachioji),2023-07-02,03:01～04:00,0.0370,0.0322,0.0343,
八王子 (Hachioji),2023-07-02,02:01～03:00,0.0383,0.0330,0.0354,
八王子 (Hachioji),2023-07-02,01:01～02:00,0.0416,0.0347,0.0376,
八王子 (Hachioji),2023-07-02,00:01～01:00,0.0450,0.0372,0.0406,
八王子 (Hachioji),2023-07-01,23:01～24:00,0.0477,0.0423,0.0451,
八王子 (Hachioji),2023-07-01,22:01～23:00,0.0494,0.0360,0.0444,
八王子 (Hachioji),2023-07-01,21:01～22:00,0.0381,0.0325,0.0350,
八王子 (Hachioji),2023-07-01,20:01～21:00,0.0383,0.0328,0.0352,
八王子 (Hachioji),2023-07-01,19:01～20:00,0.0390,0.0333,0.0360,
八王子 (Hachioji),2023-07-01,18:01～19:00,0.0379,0.0323,0.0353,
八王子 (Hachioji),2023-07-01,17:01～18:00,0.0365,0.0319,0.0340,
八王子 (Hachioji),2023-07-01,16:01～17:00,0.0364,0.0319,0.0340,
八王子 (Hachioji),2023-07-01,15:01～16:00,0.0367,0.0324,0.0343,
八王子 (Hachioji),2023-07-01,14:01～15:00,0.0361,0.0319,0.0341,
八王子 (Hachioji),2023-07-01,13:01～14:00,0.0375,0.0326,0.0345,
八王子 (Hachioji),2023-07-01,12:01～13:00,0.0388,0.0337,0.0360,
八王子 (Hachioji),2023-07-01,11:01～12:00,0.0415,0.0356,0.0384,
八王子 (Hachioji),2023-07-01,10:01～11:00,0.0423,0.0349,0.0391,
八王子 (Hachioji),2023-07-01,09:01～10:00,0.0384,0.0329,0.0356,
八王子 (Hachioji),2023-07-01,08:01～09:00,0.0369,0.0317,0.0343,
八王子 (Hachioji),2023-07-01,07:01～08:00,0.0358,0.0312,0.0340,
八王子 (Hachioji),2023-07-01,06:01～07:00,0.0373,0.0304,0.0342,
八王子 (Hachioji),2023-07-01,05:01～06:00,0.0366,0.0313,0.0342,
八王子 (Hachioji),2023-07-01,04:01～05:00,0.0357,0.0316,0.0340,
八王子 (Hachioji),2023-07-01,03:01～04:00,0.0369,0.0318,0.0345,
八王子 (Hachioji),2023-07-01,02:01～03:00,0.0365,0.0324,0.0343,
八王子 (Hachioji),2023-07-01,01:01～02:00,0.0376,0.0318,0.0341,
八王子 (Hachioji),2023-07-01,00:01～01:00,0.0365,0.0315,0.0341,
八王子 (Hachioji),2023-06-30,23:01～24:00,0.0362,0.0317,0.0343,
八王子 (Hachioji),2023-06-30,22:01～23:00,0.0368,0.0318,0.0349,
八王子 (Hachioji),2023-06-30,21:01～22:00,0.0381,0.0334,0.0355,
八王子 (Hachioji),2023-06-30,20:01～21:00,0.0364,0.0321,0.0343,
八王子 (Hachioji),2023-06-30,19:01～20:00,0.0364,0.0318,0.0341,
八王子 (Hachioji),2023-06-30,18:01～19:00,0.0372,0.0325,0.0348,
八王子 (Hachioji),2023-06-30,17:01～18:00,0.0378,0.0328,0.0354,
八王子 (Hachioji),2023-06-30,16:01～17:00,0.0368,0.0319,0.0344,
八王子 (Hachioji),2023-06-30,15:01～16:00,0.0370,0.0317,0.0341,
八王子 (Hachioji),2023-06-30,14:01～15:00,0.0360,0.0311,0.0338,
八王子 (Hachioji),2023-06-30,13:01～14:00,0.0377,0.0318,0.0344,
八王子 (Hachioji),2023-06-30,12:01～13:00,0.0379,0.0332,0.0354,
八王子 (Hachioji),2023-06-30,11:01～12:00,0.0405,0.0335,0.0376,
八王子 (Hachioji),2023-06-30,10:01～11:00,0.0404,0.0350,0.0379,
八王子 (Hachioji),2023-06-30,09:01～10:00,0.0395,0.0340,0.0367,
八王子 (Hachioji),2023-06-30,08:01～09:00,0.0389,0.0338,0.0364,
八王子 (Hachioji),2023-06-30,07:01～08:00,0.0398,0.0343,0.0367,
八王子 (Hachioji),2023-06-30,06:01～07:00,0.0391,0.0351,0.0372,
八王子 (Hachioji),2023-06-30,05:01～06:00,0.0391,0.0346,0.0372,
八王子 (Hachioji),2023-06-30,04:01～05:00,0.0397,0.0343,0.0367,
八王子 (Hachioji),2023-06-30,03:01～04:00,0.0393,0.0349,0.0367,
八王子 (Hachioji),2023-06-30,02:01～03:00,0.0388,0.0332,0.0359,
八王子 (Hachioji),2023-06-30,01:01～02:00,0.0375,0.0331,0.0356,
八王子 (Hachioji),2023-06-30,00:01～01:00,0.0378,0.0325,0.0354,
八王子 (Hachioji),2023-06-29,23:01～24:00,0.0378,0.0331,0.0353,
八王子 (Hachioji),2023-06-29,22:01～23:00,0.0376,0.0335,0.0351,
八王子 (Hachioji),2023-06-29,21:01～22:00,0.0379,0.0333,0.0359,
八王子 (Hachioji),2023-06-29,20:01～21:00,0.0388,0.0332,0.0355,
八王子 (Hachioji),2023-06-29,19:01～20:00,0.0374,0.0321,0.0344,
八王子 (Hachioji),2023-06-29,18:01～19:00,0.0372,0.0318,0.0345,
八王子 (Hachioji),2023-06-29,17:01～18:00,0.0364,0.0316,0.0344,
八王子 (Hachioji),2023-06-29,16:01～17:00,0.0372,0.0324,0.0343,
八王子 (Hachioji),2023-06-29,15:01～16:00,0.0363,0.0321,0.0344,
八王子 (Hachioji),2023-06-29,14:01～15:00,0.0356,0.0322,0.0341,
八王子 (Hachioji),2023-06-29,13:01～14:00,0.0367,0.0312,0.0344,
八王子 (Hachioji),2023-06-29,12:01～13:00,0.0364,0.0318,0.0342,
八王子 (Hachioji),2023-06-29,11:01～12:00,0.0367,0.0323,0.0344,
八王子 (Hachioji),2023-06-29,10:01～11:00,0.0377,0.0309,0.0343,
八王子 (Hachioji),2023-06-29,09:01～10:00,0.0370,0.0320,0.0341,
八王子 (Hachioji),2023-06-29,08:01～09:00,0.0367,0.0323,0.0345,
八王子 (Hachioji),2023-06-29,07:01～08:00,0.0374,0.0327,0.0349,
八王子 (Hachioji),2023-06-29,06:01～07:00,0.0374,0.0322,0.0346,
八王子 (Hachioji),2023-06-29,05:01～06:00,0.0367,0.0322,0.0346,
八王子 (Hachioji),2023-06-29,04:01～05:00,0.0371,0.0326,0.0348,
八王子 (Hachioji),2023-06-29,03:01～04:00,0.0369,0.0327,0.0346,
八王子 (Hachioji),2023-06-29,02:01～03:00,0.0371,0.0313,0.0345,
八王子 (Hachioji),2023-06-29,01:01～02:00,0.0370,0.0316,0.0344,
八王子 (Hachioji),2023-06-29,00:01～01:00,0.0383,0.0328,0.0347,
八王子 (Hachioji),2023-06-28,23:01～24:00,0.0374,0.0326,0.0351,
八王子 (Hachioji),2023-06-28,22:01～23:00,0.0366,0.0321,0.0347,
八王子 (Hachioji),2023-06-28,21:01～22:00,0.0370,0.0316,0.0344,
八王子 (Hachioji),2023-06-28,20:01～21:00,0.0357,0.0318,0.0339,
八王子 (Hachioji),2023-06-28,19:01～20:00,0.0365,0.0318,0.0341,
八王子 (Hachioji),2023-06-28,18:01～19:00,0.0360,0.0311,0.0340,
八王子 (Hachioji),2023-06-28,17:01～18:00,0.0381,0.0319,0.0341,
八王子 (Hachioji),2023-06-28,16:01～17:00,0.0367,0.0321,0.0344,
八王子 (Hachioji),2023-06-28,15:01～16:00,0.0361,0.0301,0.0342,
八王子 (Hachioji),2023-06-28,14:01～15:00,0.0360,0.0316,0.0337,
八王子 (Hachioji),2023-06-28,13:01～14:00,0.0363,0.0311,0.0340,
八王子 (Hachioji),2023-06-28,12:01～13:00,0.0365,0.0323,0.0343,
八王子 (Hachioji),2023-06-28,11:01～12:00,0.0363,0.0322,0.0345,
八王子 (Hachioji),2023-06-28,10:01～11:00,0.0378,0.0330,0.0351,
八王子 (Hachioji),2023-06-28,09:01～10:00,0.0370,0.0322,0.0349,
八王子 (Hachioji),2023-06-28,08:01～09:00,0.0383,0.0336,0.0357,
八王子 (Hachioji),2023-06-28,07:01～08:00,0.0387,0.0328,0.0360,
八王子 (Hachioji),2023-06-28,06:01～07:00,0.0393,0.0336,0.0365,
八王子 (Hachioji),2023-06-28,05:01～06:00,0.0378,0.0339,0.0358,
八王子 (Hachioji),2023-06-28,04:01～05:00,0.0373,0.0322,0.0348,
八王子 (Hachioji),2023-06-28,03:01～04:00,0.0374,0.0325,0.0351,
八王子 (Hachioji),2023-06-28,02:01～03:00,0.0380,0.0326,0.0359,
八王子 (Hachioji),2023-06-28,01:01～02:00,0.0384,0.0327,0.0353,
八王子 (Hachioji),2023-06-28,00:01～01:00,0.0365,0.0325,0.0346,
八王子 (Hachioji),2023-06-27,23:01～24:00,0.0370,0.0318,0.0342,
八王子 (Hachioji),2023-06-27,22:01～23:00,0.0367,0.0318,0.0343,
八王子 (Hachioji),2023-06-27,21:01～22:00,0.0362,0.0319,0.0340,
八王子 (Hachioji),2023-06-27,20:01～21:00,0.0369,0.0313,0.0340,
八王子 (Hachioji),2023-06-27,19:01～20:00,0.0361,0.0319,0.0341,
八王子 (Hachioji),2023-06-27,18:01～19:00,0.0374,0.0325,0.0343,
八王子 (Hachioji),2023-06-27,17:01～18:00,0.0368,0.0325,0.0346,
八王子 (Hachioji),2023-06-27,16:01～17:00,0.0367,0.0325,0.0341,
八王子 (Hachioji),2023-06-27,15:01～16:00,0.0363,0.0322,0.0340,
八王子 (Hachioji),2023-06-27,14:01～15:00,0.0363,0.0321,0.0338,
八王子 (Hachioji),2023-06-27,13:01～14:00,0.0357,0.0322,0.0340,
八王子 (Hachioji),2023-06-27,12:01～13:00,0.0377,0.0325,0.0344,
八王子 (Hachioji),2023-06-27,11:01～12:00,0.0367,0.0318,0.0344,
八王子 (Hachioji),2023-06-27,10:01～11:00,0.0372,0.0321,0.0344,
八王子 (Hachioji),2023-06-27,09:01～10:00,0.0374,0.0320,0.0352,
八王子 (Hachioji),2023-06-27,08:01～09:00,0.0378,0.0339,0.0356,
八王子 (Hachioji),2023-06-27,07:01～08:00,0.0388,0.0329,0.0362,
八王子 (Hachioji),2023-06-27,06:01～07:00,0.0384,0.0334,0.0367,
八王子 (Hachioji),2023-06-27,05:01～06:00,0.0388,0.0321,0.0354,
八王子 (Hachioji),2023-06-27,04:01～05:00,0.0363,0.0325,0.0342,
八王子 (Hachioji),2023-06-27,03:01～04:00,0.0370,0.0325,0.0342,
八王子 (Hachioji),2023-06-27,02:01～03:00,0.0367,0.0326,0.0343,
八王子 (Hachioji),2023-06-27,01:01～02:00,0.0368,0.0320,0.0344,
八王子 (Hachioji),2023-06-27,00:01～01:00,0.0369,0.0325,0.0345,
八王子 (Hachioji),2023-06-26,23:01～24:00,0.0360,0.0322,0.0343,
八王子 (Hachioji),2023-06-26,22:01～23:00,0.0364,0.0323,0.0342,
八王子 (Hachioji),2023-06-26,21:01～22:00,0.0365,0.0322,0.0341,
八王子 (Hachioji),2023-06-26,20:01～21:00,0.0369,0.0317,0.0339,
八王子 (Hachioji),2023-06-26,19:01～20:00,0.0373,0.0322,0.0342,
八王子 (Hachioji),2023-06-26,18:01～19:00,0.0366,0.0316,0.0341,
八王子 (Hachioji),2023-06-26,17:01～18:00,0.0364,0.0318,0.0341,
八王子 (Hachioji),2023-06-26,16:01～17:00,0.0365,0.0308,0.0340,
八王子 (Hachioji),2023-06-26,15:01～16:00,0.0365,0.0310,0.0339,
八王子 (Hachioji),2023-06-26,14:01～15:00,0.0357,0.0309,0.0337,
八王子 (Hachioji),2023-06-26,13:01～14:00,0.0354,0.0318,0.0336,
八王子 (Hachioji),2023-06-26,12:01～13:00,0.0365,0.0319,0.0339,
八王子 (Hachioji),2023-06-26,11:01～12:00,0.0360,0.0311,0.0339,
八王子 (Hachioji),2023-06-26,10:01～11:00,0.0371,0.0315,0.0341,
八王子 (Hachioji),2023-06-26,09:01～10:00,0.0370,0.0319,0.0340,
八王子 (Hachioji),2023-06-26,08:01～09:00,0.0374,0.0318,0.0341,
八王子 (Hachioji),2023-06-26,07:01～08:00,0.0374,0.0315,0.0345,
八王子 (Hachioji),2023-06-26,06:01～07:00,0.0397,0.0331,0.0361,
八王子 (Hachioji),2023-06-26,05:01～06:00,0.0383,0.0328,0.0360,
八王子 (Hachioji),2023-06-26,04:01～05:00,0.0377,0.0327,0.0353,
八王子 (Hachioji),2023-06-26,03:01～04:00,0.0363,0.0324,0.0342,
八王子 (Hachioji),2023-06-26,02:01～03:00,0.0370,0.0320,0.0342,
八王子 (Hachioji),2023-06-26,01:01～02:00,0.0361,0.0308,0.0341,
八王子 (Hachioji),2023-06-26,00:01～01:00,0.0360,0.0314,0.0339,
